Location: Rounton
(54.4000°N, 1.3500°W)
Time: 15:02:26
(UTC+00:00)

Transit 4A - Pass Details

Date: 01 December 2021
Orbit: 864 x 981 km, 66.8° (Epoch: 20 January)

Event Time Altitude Azimuth Distance (km) Brightness Sun altitude
Rises 23:13:08 0° 273° (W) 3,507 - -56.6°
Reaches altitude 10° 23:15:58 10° 285° (WNW) 2,587 - -56.7°
Maximum altitude 23:21:08 29° 345° (NNW) 1,630 - -56.9°
Drops below altitude 10° 23:26:28 10° 44° (NE) 2,663 - -57.1°
Sets 23:29:25 0° 56° (NE) 3,628 - -57.2°
